This demonstration page uses our WeatherBlox Daily Observations layout. Learn more.

Left ArrowRight Arrow

39.12711, -84.51439

Hourly Observations for July 18, 2020

Temp ( °F °C ) Dew Point ( °F °C ) Humidity (%) Winds ( mph kmh ) Pressure ( in mb ) Visibility ( mi km ) Precip ( " mm )
12:53 am 00:53 Clear 71 21.7 68 20 90 90 Calm 30.11 1020 9 14 0.00 0.00
1:53 am 01:53 Clear 72 22.2 69 20.6 91 91 Calm 30.11 1020 9 14 0.00 0.00
2:53 am 02:53 Clear 70 21.1 68 20 93 93 Calm 30.10 1019 7 11 0.00 0.00
3:53 am 03:53 Clear with Mist and Fog 70 21.1 68 20 93 93 Calm 30.09 1019 6 10 0.00 0.00
4:53 am 04:53 Clear with Mist and Fog 70 21.1 68 20 93 93 Calm 30.09 1019 6 10 0.00 0.00
5:51 am 05:51 Clear with Mist and Fog 68 20 66 19 94 94 Calm 30.11 1020 2 3 0.00 0.00
5:53 am 05:53 Clear with Mist and Fog 68 20 67 19.4 96 96 Calm 30.11 1020 2 3 0.00 0.00
6:01 am 06:01 Clear with Mist and Fog 68 20 67 19.4 96 96 Calm 30.12 1020 4 6 0.00 0.00
6:53 am 06:53 Mostly Sunny 69 20.6 67 19.4 93 93 NE 3 6 30.12 1020 10 16 0.00 0.00
7:53 am 07:53 Mostly Sunny 73 22.8 70 21.1 90 90 NE 3 6 30.13 1020 8 13 0.00 0.00
8:53 am 08:53 Sunny 78 25.6 73 22.8 85 85 Calm 30.12 1020 10 16 0.00 0.00
9:53 am 09:53 Mostly Sunny 82 27.8 74 23.3 77 77 VRB 3 6 30.10 1019 10 16 0.00 0.00
10:53 am 10:53 Partly Cloudy 85 29.4 74 23.3 70 70 S 8 13 30.09 1019 10 16 0.00 0.00
11:53 am 11:53 Mostly Cloudy 86 30 73 22.8 65 65 S 9 15 30.08 1019 10 16 0.00 0.00
12:53 pm 12:53 Partly Cloudy 89 31.7 73 22.8 59 59 SW 7 11 30.08 1019 10 16 0.00 0.00
1:53 pm 13:53 Mostly Cloudy 88 31.1 72 22.2 59 59 WSW 7 11 30.07 1018 10 16 0.00 0.00
2:53 pm 14:53 Partly Cloudy 90 32.2 70 21.1 52 52 W 10 17 30.06 1018 10 16 0.00 0.00
3:53 pm 15:53 Mostly Cloudy 91 32.8 72 22.2 54 54 SSW 12 19 30.03 1017 10 16 0.00 0.00
4:48 pm 16:48 Mostly Cloudy 88 31 72 22 59 59 WSW 10 17 30.01 1016 8 13 0.00 0.00
4:53 pm 16:53 Mostly Cloudy 90 32.2 70 21.1 52 52 SW 12 19 30.02 1017 7 11 0.00 0.00
5:53 pm 17:53 Partly Cloudy 90 32.2 70 21.1 52 52 SW 9 15 30.00 1016 10 16 0.00 0.00
6:53 pm 18:53 Mostly Sunny 88 31.1 70 21.1 55 55 SSW 10 17 29.98 1015 10 16 0.00 0.00
7:53 pm 19:53 Mostly Sunny 87 30.6 70 21.1 57 57 SW 10 17 29.98 1015 10 16 0.00 0.00
8:53 pm 20:53 Partly Cloudy 84 28.9 71 21.7 65 65 SW 6 9 29.99 1016 10 16 0.00 0.00
9:53 pm 21:53 Clear 78 25.6 71 21.7 79 79 S 5 7 30.01 1016 10 16 0.00 0.00
10:53 pm 22:53 Clear 80 26.7 72 22.2 76 76 Calm 30.02 1017 10 16 0.00 0.00
11:53 pm 23:53 Clear 77 25 72 22.2 85 85 Calm 30.01 1016 10 16 0.00 0.00

Powered by AerisWeather